RH
100 87 44 73 92 100 100 100 100 100 100 100 100 83 74 83 78 68 38 46 47 37 28 79 100 100 76 35 11 12 12 15 15 17 16 14 12 10 10 9 9 9 8 10 10
91 68 41 42 94 96 96 100 100 100 100 100 96 100 100 55 57 74 42 59 49 36 32 86 100 100 84 51 12 11 12 13 16 16 18 14 12 11 11 10 10 10 10 10 10
76 62 58 71 86 98 78 90 100 100 100 100 100 83 71 40 57 40 34 49 54 28 47 97 100 100 93 73 19 12 14 12 13 17 18 18 13 13 12 11 10 10 11 12 13
100 83 82 56 71 72 55 48 99 100 100 100 95 78 68 74 71 51 28 58 40 25 73 100 100 100 99 84 34 12 13 14 14 12 15 18 22 18 16 15 14 14 15 16 18
100 81 66 68 78 74 64 52 64 76 96 84 75 61 62 78 76 64 32 55 21 25 85 98 97 100 100 95 45 17 14 14 15 15 12 12 14 18 24 23 24 26 25 26 27
100 94 65 88 100 96 93 93 68 78 84 62 82 87 74 98 93 68 40 60 30 47 78 94 89 100 100 89 70 28 15 15 16 16 16 15 13 12 13 17 22 25 25 24 23
86 82 98 100 100 100 100 97 94 78 98 100 100 74 73 77 80 56 50 46 42 39 90 97 98 100 96 76 76 63 24 16 17 18 18 18 17 15 16 14 17 19 22 23 24
69 94 97 100 100 100 98 96 91 80 100 90 66 93 94 90 84 73 70 73 43 73 88 94 97 96 100 79 70 76 60 23 17 18 19 20 19 22 20 20 20 20 20 20 22
16 24 58 95 100 100 99 100 98 99 92 79 90 89 86 84 86 73 100 67 49 67 87 97 100 95 100 86 58 68 81 82 28 19 19 21 20 23 22 23 22 22 22 22 23
18 21 23 41 79 100 100 99 80 56 82 100 94 100 94 86 50 100 79 68 82 58 94 100 100 99 100 96 68 66 73 85 95 55 42 23 22 22 25 26 28 27 29 38 62
18 17 24 37 81 100 100 100 71 80 73 100 100 100 68 49 52 88 65 67 98 91 100 100 100 100 100 100 85 56 50 80 81 95 100 74 27 24 29 34 36 40 46 60 67
19 19 19 69 100 100 100 100 89 100 100 100 97 76 70 80 68 78 91 83 100 95 92 98 84 99 100 100 93 55 51 57 70 83 93 100 98 75 62 53 61 63 62 70 64
19 28 89 100 100 100 100 100 99 99 89 96 72 74 89 89 80 98 91 100 98 72 80 92 85 97 100 100 100 75 49 58 54 69 64 84 100 90 82 95 74 66 64 55 46
31 62 97 100 100 100 98 99 100 100 100 81 86 100 100 68 67 83 100 100 75 57 66 78 86 100 100 100 100 99 46 40 47 63 73 60 100 83 57 72 64 52 49 47 48
100 91 100 100 100 100 100 91 100 74 63 98 100 94 78 100 100 100 95 77 65 61 76 72 99 100 100 100 100 100 69 47 42 47 72 68 97 100 84 59 56 71 68 64 58
98 100 100 92 100 100 100 100 74 56 99 100 100 100 100 100 100 89 79 63 54 77 77 89 100 100 100 100 100 100 93 82 72 58 61 63 90 100 100 89 96 68 55 56 49
100 84 80 100 94 100 100 72 99 100 100 97 89 100 100 100 93 79 59 48 60 73 68 98 100 100 100 100 100 100 94 86 79 73 66 73 90 100 100 100 80 78 76 65 60
98 99 100 100 100 85 50 57 99 88 73 96 100 100 90 84 73 63 53 59 78 92 100 100 100 100 100 100 100 98 89 73 58 75 95 99 100 100 100 97 93 97 87 80 83
100 100 100 95 71 63 76 66 58 64 100 100 97 87 64 52 50 52 54 60 74 86 90 100 100 100 100 100 88 96 83 70 55 51 55 81 100 100 98 79 86 88 89 100 100
100 100 100 60 100 100 100 100 94 94 97 84 76 60 48 48 59 45 54 64 78 75 86 99 100 100 100 100 99 86 79 72 70 59 53 56 85 100 100 100 99 97 100 100 100
100 82 76 96 82 73 60 66 93 89 84 76 67 54 48 62 65 76 97 85 79 78 80 74 94 100 100 100 100 90 82 73 65 62 59 59 72 100 100 96 95 100 98 92 89
65 99 100 100 100 100 100 96 85 74 64 64 62 54 58 61 83 87 87 73 69 70 73 68 68 95 100 100 100 99 96 92 82 83 82 78 53 100 65 54 47 55 80 98 100
95 97 99 96 89 89 85 81 79 62 55 72 89 84 92 100 100 100 100 100 100 100 97 94 93 99 100 100 100 100 100 92 78 84 86 49 64 63 55 57 57 66 77 76 65
100 91 88 84 74 68 63 52 47 50 54 57 74 83 87 94 88 87 89 82 73 71 72 77 93 87 79 83 83 94 100 100 100 89 71 67 52 80 73 67 81 100 83 55 59
70 58 46 48 52 52 51 56 51 56 72 80 85 86 83 82 74 57 56 57 54 49 48 49 50 51 56 65 63 68 85 90 62 56 45 72 73 50 43 52 70 66 66 79 71
45 49 54 55 55 52 48 49 46 47 54 54 52 55 57 52 55 62 68 67 62 59 56 56 55 49 64 58 54 66 83 67 82 74 72 60 56 49 63 66 69 66 61 63 60
55 54 53 50 55 53 53 52 55 54 56 52 49 52 52 50 52 56 64 77 92 97 92 83 72 64 82 73 62 97 100 100 97 72 71 61 65 65 69 63 66 72 66 62 61
Wind_Speed
58 60 54 51 49 52 47 46 50 47 45 45 40 47 50 43 45 47 48 45 49 50 57 50 47 32 24 23 23 23 21 19 20 19 15 12 11 10 9 9 9 7 7 8 8
59 57 56 59 51 53 53 49 49 47 39 40 43 46 41 54 49 47 45 45 47 53 56 48 45 35 25 23 22 22 22 19 18 19 18 14 11 10 10 9 10 9 8 9 10
58 55 52 57 57 57 55 53 54 50 46 43 40 42 57 59 49 43 41 46 47 52 53 46 42 38 27 24 23 21 21 21 19 17 18 15 13 11 10 11 11 11 12 14 15
54 61 57 55 59 56 56 54 52 52 55 52 51 52 50 48 44 38 42 47 48 54 51 41 43 37 29 24 24 22 21 21 22 19 17 16 16 18 17 16 16 16 17 19 21
72 66 61 61 58 55 57 53 53 54 57 56 57 52 46 42 45 37 43 44 50 51 47 44 41 38 30 25 24 25 23 21 22 22 21 19 18 18 19 20 22 22 23 24 25
71 64 66 63 58 54 53 52 53 53 52 50 52 45 43 43 41 38 42 43 49 47 45 41 40 39 29 28 26 26 26 25 24 24 23 25 23 21 24 23 23 25 26 27 29
74 68 68 62 59 57 58 60 56 46 48 45 42 47 44 43 43 42 43 43 47 45 45 40 39 38 31 30 27 27 28 29 27 25 25 27 24 26 26 26 27 28 29 30 30
69 75 73 73 70 68 63 56 50 48 48 45 49 44 45 43 41 43 45 44 49 44 46 39 37 38 32 31 28 29 30 31 28 28 28 29 27 29 27 30 30 31 32 32 33
57 61 66 67 67 60 56 45 47 45 47 51 43 43 43 42 41 45 44 48 45 43 45 39 39 38 35 31 31 31 31 31 29 31 31 31 31 28 30 31 31 33 34 35 35
50 55 62 64 60 59 57 56 51 53 44 41 43 41 38 39 44 48 48 48 42 44 47 39 40 39 37 33 34 31 32 31 31 31 32 32 37 32 32 35 33 35 36 36 37
43 46 52 57 60 62 55 45 56 45 45 46 41 41 47 44 51 50 50 48 44 44 45 41 42 41 39 35 35 33 33 30 27 28 32 31 38 38 35 38 36 38 40 41 41
40 40 42 42 36 46 51 47 45 45 44 40 41 40 45 48 44 50 50 48 47 47 46 43 43 43 39 38 36 35 33 29 30 27 29 34 38 40 38 40 40 43 44 44 44
39 41 37 38 43 41 40 41 44 42 48 45 45 45 46 42 47 48 49 47 45 48 49 47 47 44 41 41 41 40 37 35 34 35 37 37 37 45 40 43 45 46 45 46 47
39 31 30 39 46 48 40 40 38 42 43 44 45 45 46 49 50 49 48 48 49 52 48 48 47 45 44 44 43 44 40 37 36 36 37 40 35 42 42 44 46 45 46 49 50
36 36 41 39 38 34 41 43 40 41 43 46 46 47 46 46 47 45 48 50 52 50 48 49 47 46 45 46 47 45 44 40 38 39 38 40 37 46 44 48 47 49 49 51 52
38 36 34 37 33 42 43 44 45 45 44 42 43 45 48 53 49 49 50 54 52 47 49 50 47 46 47 47 47 44 44 44 42 42 43 43 44 50 48 48 56 54 54 54 56
38 35 30 37 40 45 44 42 43 46 47 47 50 51 49 49 51 53 55 51 47 46 48 50 50 48 47 47 47 46 44 43 40 41 42 43 46 52 55 58 58 59 59 56 55
36 40 40 36 38 41 42 45 46 44 47 52 50 50 53 53 54 53 52 46 46 47 50 51 50 48 47 47 47 46 45 43 35 40 41 46 49 53 56 62 63 61 61 62 61
40 44 44 41 43 42 43 49 52 50 55 56 55 55 55 52 47 45 46 47 47 48 49 52 53 51 50 49 48 48 48 46 43 45 43 45 50 55 59 65 64 64 64 64 64
43 37 42 45 42 42 47 48 50 54 54 55 56 53 52 47 44 45 48 47 48 47 48 47 47 51 51 51 52 50 51 52 53 52 48 47 50 56 62 65 64 65 64 65 69
44 45 48 52 50 54 57 55 54 56 54 51 52 52 54 49 49 48 51 51 51 50 49 47 46 50 52 54 56 58 60 61 60 61 58 54 49 57 66 68 65 65 69 73 73
48 50 45 47 50 51 52 52 55 56 57 56 58 57 54 53 51 51 52 54 53 52 53 53 50 55 59 60 63 64 65 67 67 66 66 65 49 62 69 71 69 67 66 68 71
55 56 54 54 56 57 59 60 60 60 60 56 54 56 56 55 55 56 57 58 58 59 60 60 59 59 62 66 67 67 68 70 72 70 68 68 61 68 77 75 66 65 68 70 72
55 54 59 58 61 61 62 63 64 61 58 54 55 58 58 59 59 58 61 61 63 65 66 65 65 68 67 68 70 68 68 71 72 73 74 69 69 67 75 69 62 64 70 65 58
63 60 59 58 59 60 58 58 57 54 55 57 58 59 61 61 61 60 60 59 59 61 64 66 65 67 67 68 70 68 66 68 76 76 70 49 57 56 49 43 45 50 51 54 60
61 59 56 55 54 51 51 54 53 52 56 57 54 54 53 54 53 51 50 51 52 51 51 49 46 47 53 56 60 61 65 65 61 59 54 49 51 55 51 49 50 53 54 61 62
48 45 48 50 47 38 39 38 37 36 41 41 42 44 46 46 47 49 52 55 54 56 56 54 55 53 46 48 44 40 44 50 55 59 59 60 60 59 60 61 62 62 65 66 68
Wind_Direction
253 250 250 254 260 266 267 268 275 277 281 296 297 297 302 306 318 316 319 318 324 331 335 335 330 325 326 326 326 335 338 350 359 359 358 353 343 337 334 324 317 314 307 304 304
247 243 249 253 257 268 274 270 274 281 286 282 285 289 297 307 313 315 317 318 323 329 331 332 327 323 321 320 321 327 332 339 351 352 351 345 344 338 334 329 328 330 328 324 320
247 232 248 255 258 265 270 270 271 275 275 280 287 292 303 300 307 311 315 315 319 327 329 328 324 321 316 317 315 319 328 331 336 344 345 338 328 327 325 319 313 310 308 307 307
241 244 257 257 257 264 263 268 270 274 278 282 288 296 297 298 300 306 312 312 320 325 326 326 325 319 312 310 311 312 316 321 324 326 327 331 321 312 310 305 302 299 297 298 297
249 255 259 261 256 253 258 265 268 275 275 283 286 287 292 297 298 301 307 309 322 323 322 326 322 317 313 306 305 307 309 308 310 317 311 309 312 313 306 300 298 296 292 291 291
250 258 257 257 259 260 255 264 268 275 277 283 282 284 289 293 297 301 306 305 314 318 315 322 320 316 312 310 303 302 303 304 306 306 304 303 302 299 300 299 298 294 290 291 293
248 247 253 257 256 260 265 273 270 275 272 274 279 283 283 291 298 301 300 305 311 311 312 317 316 317 312 308 307 300 299 302 304 307 307 302 303 298 298 294 292 291 292 294 296
247 249 251 253 256 260 265 270 273 265 263 275 283 278 286 289 292 297 296 299 304 308 311 312 312 314 307 309 306 303 299 297 299 302 305 304 304 303 300 295 294 294 293 291 292
248 248 247 251 255 260 261 257 269 265 269 272 272 280 285 288 291 290 290 297 303 308 310 306 308 307 305 304 306 306 303 298 300 297 298 299 299 299 301 298 296 294 294 294 294
247 247 247 247 249 253 260 265 265 270 267 267 274 274 279 286 289 288 296 297 299 304 306 304 302 304 303 301 304 302 306 301 297 300 300 298 295 298 298 295 297 296 294 294 296
250 252 251 247 247 252 254 252 268 269 262 266 265 272 278 279 283 289 289 293 292 297 303 299 299 301 301 299 300 298 296 305 301 297 300 297 294 292 294 294 294 293 292 293 293
247 250 249 245 249 245 251 259 256 257 257 257 264 274 275 280 279 283 287 292 292 297 300 296 295 296 297 296 296 294 293 294 299 301 303 304 298 293 294 292 289 288 290 292 294
243 247 235 226 232 236 238 246 250 251 257 263 268 273 274 275 283 286 288 288 294 300 300 294 294 293 293 294 294 294 292 293 294 297 301 301 299 295 292 290 290 291 292 292 293
246 240 229 224 228 236 243 241 251 256 265 269 272 268 272 281 282 283 284 290 298 301 298 294 292 290 292 294 292 290 292 293 296 298 304 302 301 288 290 291 294 294 293 292 292
228 223 224 233 237 246 250 250 253 265 267 267 266 270 278 277 279 285 290 296 300 300 295 294 288 289 293 295 293 287 289 294 298 299 299 301 305 287 296 299 297 297 296 297 296
222 223 228 229 236 249 251 250 260 265 267 267 272 274 275 281 286 289 293 300 301 293 292 289 286 288 290 291 290 288 287 291 294 295 300 296 294 292 295 296 295 294 293 295 297
221 220 232 236 241 246 252 255 261 261 264 269 270 273 278 283 287 291 296 298 295 291 291 288 285 284 286 287 289 289 289 288 290 293 296 294 292 292 295 295 293 294 296 296 299
227 230 230 237 243 248 252 256 260 263 268 267 269 277 286 289 291 292 292 292 287 286 288 287 285 283 283 284 285 286 286 285 283 289 294 295 292 291 292 292 295 296 299 302 302
229 234 237 244 252 255 259 261 265 263 264 272 279 285 293 293 290 290 288 287 288 286 287 288 286 283 282 282 281 282 283 282 285 291 290 289 290 290 290 293 295 298 301 301 302
233 239 243 245 245 253 261 262 264 270 276 280 285 288 290 287 285 289 285 285 286 285 284 283 284 285 285 285 285 285 286 288 291 292 293 290 290 290 291 292 296 300 299 301 303
233 243 248 245 253 257 262 266 268 272 279 283 286 286 286 282 284 284 283 285 285 286 282 281 281 284 285 285 287 288 289 291 293 294 293 290 293 288 286 289 292 295 296 298 300
241 240 243 247 254 261 270 275 280 283 285 283 284 283 280 282 282 283 282 285 287 287 285 285 283 282 283 283 287 290 291 291 293 294 295 294 301 286 289 290 293 294 295 296 296
248 254 254 258 266 271 274 277 279 279 279 276 278 280 279 280 280 282 283 284 284 284 284 284 283 282 282 283 286 290 290 292 293 293 294 300 299 295 293 293 295 295 293 292 293
253 255 257 262 264 269 274 276 276 276 278 279 279 278 281 282 283 284 284 285 285 285 285 285 285 285 285 284 286 288 288 291 292 293 294 302 300 296 294 297 295 293 292 297 301
253 261 265 267 268 269 271 272 275 278 280 282 282 282 281 281 284 287 287 286 285 285 285 285 284 284 284 284 284 285 286 286 287 293 301 303 304 303 311 308 298 293 297 297 297
256 259 261 263 265 268 272 275 279 281 283 283 283 284 285 285 285 285 291 290 293 291 291 296 295 298 295 293 291 289 287 289 289 296 302 305 305 306 309 304 299 299 299 300 302
259 262 264 265 269 272 274 278 282 285 283 289 290 291 293 294 294 296 295 293 294 294 296 295 297 300 305 306 309 296 289 289 295 299 299 303 306 306 304 305 305 303 303 303 303